Location: Gollag?dem
(16.8053°N, 80.8024°E)
Time: 18:10:31
(UTC+00:00)

CZ-4 R/B - Pass Details

Date: 13 August 2020
Orbit: 531 x 599 km, 97.7° (Epoch: 20 September)

Event Time Altitude Azimuth Distance (km) Brightness Sun altitude
Rises 13:36:58 0° 176° (S) 2,667 4.6 -8.6°
Reaches altitude 10° 13:39:05 10° 180° (S) 1,784 3.7 -9.1°
Maximum altitude 13:42:52 58° 259° (W) 633 2.0 -10.0°
Drops below altitude 10° 13:46:44 10° 339° (NNW) 1,816 4.5 -10.8°
Sets 13:48:54 0° 343° (NNW) 2,721 5.4 -11.3°
